Time,TemperatureF,DewpointF,PressureIn,WindDirection,WindDirectionDegrees,WindSpeedMPH,WindSpeedGustMPH,Humidity,HourlyPrecipIn,Conditions,Clouds,dailyrainin,SoftwareType,DateUTC
2013-07-29 00:00:00,72.7,68.9,29.93,ENE,77,0.0,6.0,88,0.00,,,0.00,Wunderground v.1.15,2013-07-29 05:00:00,
2013-07-29 00:03:00,72.7,68.9,29.93,ENE,77,0.0,1.0,88,0.00,,---,0.00,VWS V14.01,2013-07-29 05:03:00,
2013-07-29 00:05:00,72.7,68.9,29.93,ENE,77,0.0,6.0,88,0.00,,,0.00,Wunderground v.1.15,2013-07-29 05:05:00,
2013-07-29 00:09:00,72.7,68.9,29.93,ENE,77,0.0,1.0,88,0.00,,---,0.00,VWS V14.01,2013-07-29 05:09:00,
2013-07-29 00:10:00,72.7,68.9,29.93,ENE,77,0.0,0.0,88,0.00,,,0.00,Wunderground v.1.15,2013-07-29 05:10:00,
2013-07-29 00:14:00,72.7,68.9,29.93,ENE,77,1.0,1.0,88,0.00,,---,0.00,VWS V14.01,2013-07-29 05:14:00,
2013-07-29 00:15:00,72.7,68.9,29.93,ENE,77,0.0,1.0,88,0.00,,,0.00,Wunderground v.1.15,2013-07-29 05:15:00,
2013-07-29 00:19:00,72.7,68.9,29.93,ENE,77,0.0,2.0,88,0.00,,---,0.00,VWS V14.01,2013-07-29 05:19:00,
2013-07-29 00:20:00,72.7,68.9,29.93,ENE,78,0.0,1.0,88,0.00,,,0.00,Wunderground v.1.15,2013-07-29 05:20:00,
2013-07-29 00:24:00,72.5,68.8,29.93,ENE,77,0.0,1.0,88,0.00,,---,0.00,VWS V14.01,2013-07-29 05:24:00,
2013-07-29 00:29:00,72.5,68.8,29.93,ENE,77,0.0,1.0,88,0.00,,---,0.00,VWS V14.01,2013-07-29 05:29:00,
2013-07-29 00:30:00,72.5,68.7,29.93,ENE,77,0.0,0.0,88,0.00,,,0.00,Wunderground v.1.15,2013-07-29 05:30:00,
2013-07-29 00:34:00,72.5,68.8,29.93,ENE,77,0.0,0.0,88,0.00,,---,0.00,VWS V14.01,2013-07-29 05:34:00,
2013-07-29 00:35:00,72.5,68.7,29.93,ENE,77,0.0,0.0,88,0.00,,,0.00,Wunderground v.1.15,2013-07-29 05:35:00,
2013-07-29 00:40:00,72.5,69.1,29.93,ENE,77,0.0,0.0,89,0.00,,,0.00,Wunderground v.1.15,2013-07-29 05:40:00,
2013-07-29 00:45:00,72.5,69.1,29.93,ENE,77,0.0,1.0,89,0.00,,,0.00,Wunderground v.1.15,2013-07-29 05:45:00,
2013-07-29 00:50:00,72.5,69.1,29.93,ENE,77,0.0,0.0,89,0.00,,,0.00,Wunderground v.1.15,2013-07-29 05:50:00,
2013-07-29 00:55:00,72.5,69.1,29.93,ENE,77,0.0,0.0,89,0.00,,,0.00,Wunderground v.1.15,2013-07-29 05:55:00,
2013-07-29 01:00:00,72.5,69.1,29.93,ENE,77,0.0,0.0,89,0.00,,,0.00,Wunderground v.1.15,2013-07-29 06:00:00,
2013-07-29 01:01:00,72.5,69.1,29.93,ENE,77,0.0,0.0,89,0.00,,---,0.00,VWS V14.01,2013-07-29 06:01:00,
2013-07-29 01:05:00,72.3,68.9,29.92,ENE,77,0.0,1.0,89,0.00,,,0.00,Wunderground v.1.15,2013-07-29 06:05:00,
2013-07-29 01:06:00,72.3,68.9,29.92,ENE,77,0.0,0.0,89,0.00,,---,0.00,VWS V14.01,2013-07-29 06:06:00,
2013-07-29 01:10:00,72.3,68.9,29.92,ENE,77,0.0,1.0,89,0.00,,,0.00,Wunderground v.1.15,2013-07-29 06:10:00,
2013-07-29 01:11:00,72.3,68.9,29.92,ENE,77,0.0,0.0,89,0.00,,---,0.00,VWS V14.01,2013-07-29 06:11:00,
2013-07-29 01:15:00,72.3,68.9,29.92,ENE,77,0.0,1.0,89,0.00,,,0.00,Wunderground v.1.15,2013-07-29 06:15:00,
2013-07-29 01:17:00,72.3,68.9,29.92,ENE,77,0.0,0.0,89,0.00,,---,0.00,VWS V14.01,2013-07-29 06:17:00,
2013-07-29 01:20:00,72.1,68.7,29.92,ENE,77,0.0,1.0,89,0.00,,,0.00,Wunderground v.1.15,2013-07-29 06:20:00,
2013-07-29 01:22:00,72.1,68.7,29.92,ENE,77,0.0,0.0,89,0.00,,---,0.00,VWS V14.01,2013-07-29 06:22:00,
2013-07-29 01:25:00,72.1,68.7,29.92,ENE,77,0.0,1.0,89,0.00,,,0.00,Wunderground v.1.15,2013-07-29 06:25:00,
2013-07-29 01:27:00,72.0,68.6,29.93,ENE,77,0.0,0.0,89,0.00,,---,0.00,VWS V14.01,2013-07-29 06:27:00,
2013-07-29 01:30:00,72.0,68.6,29.93,ENE,77,0.0,1.0,89,0.00,,,0.00,Wunderground v.1.15,2013-07-29 06:30:00,
2013-07-29 01:32:00,72.0,68.6,29.93,ENE,77,0.0,0.0,89,0.00,,---,0.00,VWS V14.01,2013-07-29 06:32:00,
2013-07-29 01:35:00,71.8,68.4,29.93,ENE,77,0.0,1.0,89,0.00,,,0.00,Wunderground v.1.15,2013-07-29 06:35:00,
2013-07-29 01:37:00,71.8,68.4,29.93,ENE,77,0.0,0.0,89,0.00,,---,0.00,VWS V14.01,2013-07-29 06:37:00,
2013-07-29 01:42:00,71.6,68.5,29.92,ENE,77,0.0,0.0,90,0.00,,---,0.00,VWS V14.01,2013-07-29 06:42:00,
2013-07-29 01:45:00,71.6,68.5,29.92,ENE,77,0.0,1.0,90,0.00,,,0.00,Wunderground v.1.15,2013-07-29 06:45:00,
2013-07-29 01:48:00,71.6,68.5,29.92,ENE,77,0.0,0.0,90,0.00,,---,0.00,VWS V14.01,2013-07-29 06:48:00,
2013-07-29 01:50:00,71.6,68.5,29.92,ENE,77,0.0,1.0,90,0.00,,,0.00,Wunderground v.1.15,2013-07-29 06:50:00,
2013-07-29 01:53:00,71.6,68.5,29.92,ENE,77,0.0,0.0,90,0.00,,---,0.00,VWS V14.01,2013-07-29 06:53:00,
2013-07-29 01:55:00,71.6,68.5,29.93,ENE,77,0.0,1.0,90,0.00,,,0.00,Wunderground v.1.15,2013-07-29 06:55:00,
2013-07-29 01:58:00,71.6,68.5,29.93,ENE,77,0.0,0.0,90,0.00,,---,0.00,VWS V14.01,2013-07-29 06:58:00,
2013-07-29 02:00:00,71.6,68.5,29.92,ENE,77,0.0,1.0,90,0.00,,,0.00,Wunderground v.1.15,2013-07-29 07:00:00,
2013-07-29 02:03:00,71.8,68.7,29.92,ENE,77,0.0,2.0,90,0.00,,---,0.00,VWS V14.01,2013-07-29 07:03:00,
2013-07-29 02:05:00,71.8,68.7,29.93,ENE,77,0.0,1.0,90,0.00,,,0.00,Wunderground v.1.15,2013-07-29 07:05:00,
2013-07-29 02:08:00,71.8,68.7,29.93,ENE,77,3.0,3.0,90,0.00,,---,0.00,VWS V14.01,2013-07-29 07:08:00,
2013-07-29 02:10:00,72.0,69.2,29.92,ENE,77,0.0,1.0,91,0.00,,,0.00,Wunderground v.1.15,2013-07-29 07:10:00,
2013-07-29 02:13:00,72.0,69.2,29.92,ENE,77,1.0,1.0,91,0.00,,---,0.00,VWS V14.01,2013-07-29 07:13:00,
2013-07-29 02:15:00,72.0,69.2,29.92,ENE,77,1.0,1.0,91,0.00,,,0.00,Wunderground v.1.15,2013-07-29 07:15:00,
2013-07-29 02:19:00,72.0,68.9,29.92,ENE,77,2.0,2.0,90,0.00,,---,0.00,VWS V14.01,2013-07-29 07:19:00,
2013-07-29 02:20:00,72.0,68.9,29.92,ENE,77,1.0,1.0,90,0.00,,,0.00,Wunderground v.1.15,2013-07-29 07:20:00,
2013-07-29 02:24:00,72.1,69.0,29.92,ENE,77,1.0,2.0,90,0.00,,---,0.00,VWS V14.01,2013-07-29 07:24:00,
2013-07-29 02:25:00,72.1,69.0,29.92,ENE,77,1.0,1.0,90,0.00,,,0.00,Wunderground v.1.15,2013-07-29 07:25:00,
2013-07-29 02:29:00,72.1,69.0,29.92,ENE,77,1.0,2.0,90,0.00,,---,0.00,VWS V14.01,2013-07-29 07:29:00,
2013-07-29 02:30:00,72.1,68.7,29.92,ENE,77,1.0,1.0,89,0.00,,,0.00,Wunderground v.1.15,2013-07-29 07:30:00,
2013-07-29 02:34:00,72.3,68.9,29.92,ENE,77,1.0,2.0,89,0.00,,---,0.00,VWS V14.01,2013-07-29 07:34:00,
2013-07-29 02:35:00,72.3,68.9,29.92,ENE,77,1.0,1.0,89,0.00,,,0.00,Wunderground v.1.15,2013-07-29 07:35:00,
2013-07-29 02:39:00,72.3,68.9,29.92,ENE,68,1.0,3.0,89,0.00,,---,0.00,VWS V14.01,2013-07-29 07:39:00,
2013-07-29 02:40:00,72.3,68.9,29.92,ENE,68,1.0,1.0,89,0.00,,,0.00,Wunderground v.1.15,2013-07-29 07:40:00,
2013-07-29 02:44:00,72.5,69.1,29.93,ENE,68,0.0,2.0,89,0.00,,---,0.00,VWS V14.01,2013-07-29 07:44:00,
2013-07-29 02:45:00,72.5,69.1,29.93,ENE,68,1.0,1.0,89,0.00,,,0.00,Wunderground v.1.15,2013-07-29 07:45:00,
2013-07-29 02:49:00,72.5,69.1,29.92,NE,54,2.0,2.0,89,0.00,,---,0.00,VWS V14.01,2013-07-29 07:49:00,
2013-07-29 02:50:00,72.7,69.3,29.93,NE,54,1.0,1.0,89,0.00,,,0.00,Wunderground v.1.15,2013-07-29 07:50:00,
2013-07-29 02:54:00,72.7,68.9,29.93,NE,54,0.0,2.0,88,0.00,,---,0.00,VWS V14.01,2013-07-29 07:54:00,
2013-07-29 02:55:00,72.7,68.9,29.93,NE,54,1.0,1.0,88,0.00,,,0.00,Wunderground v.1.15,2013-07-29 07:55:00,
2013-07-29 02:59:00,72.7,68.9,29.92,NE,54,0.0,2.0,88,0.00,,---,0.00,VWS V14.01,2013-07-29 07:59:00,
2013-07-29 03:04:00,72.7,68.9,29.92,NE,54,2.0,2.0,88,0.00,,---,0.00,VWS V14.01,2013-07-29 08:04:00,
2013-07-29 03:05:00,72.7,68.9,29.92,NE,54,1.0,1.0,88,0.00,,,0.00,Wunderground v.1.15,2013-07-29 08:05:00,
2013-07-29 03:09:00,72.7,68.9,29.92,NE,54,0.0,2.0,88,0.00,,---,0.00,VWS V14.01,2013-07-29 08:09:00,
2013-07-29 03:10:00,72.7,68.9,29.92,NE,54,0.0,1.0,88,0.00,,,0.00,Wunderground v.1.15,2013-07-29 08:10:00,
2013-07-29 03:14:00,72.5,68.8,29.92,NE,54,0.0,0.0,88,0.00,,---,0.00,VWS V14.01,2013-07-29 08:14:00,
2013-07-29 03:15:00,72.5,69.1,29.92,NE,54,0.0,1.0,89,0.00,,,0.00,Wunderground v.1.15,2013-07-29 08:15:00,
2013-07-29 03:19:00,72.5,69.1,29.92,NE,54,0.0,1.0,89,0.00,,---,0.00,VWS V14.01,2013-07-29 08:19:00,
2013-07-29 03:20:00,72.5,69.1,29.92,NE,54,0.0,1.0,89,0.00,,,0.00,Wunderground v.1.15,2013-07-29 08:20:00,
2013-07-29 03:24:00,72.5,69.1,29.92,NE,54,0.0,0.0,89,0.00,,---,0.00,VWS V14.01,2013-07-29 08:24:00,
2013-07-29 03:29:00,72.3,68.9,29.92,NE,56,1.0,3.0,89,0.00,,---,0.00,VWS V14.01,2013-07-29 08:29:00,
2013-07-29 03:30:00,72.3,68.9,29.92,NE,56,1.0,2.0,89,0.00,,,0.00,Wunderground v.1.15,2013-07-29 08:30:00,
2013-07-29 03:34:00,72.3,68.9,29.92,NE,56,1.0,2.0,89,0.00,,---,0.00,VWS V14.01,2013-07-29 08:34:00,
2013-07-29 03:35:00,72.3,68.9,29.92,NE,56,1.0,2.0,89,0.00,,,0.00,Wunderground v.1.15,2013-07-29 08:35:00,
2013-07-29 03:40:00,72.3,68.9,29.92,NE,56,0.0,2.0,89,0.00,,---,0.00,VWS V14.01,2013-07-29 08:40:00,
2013-07-29 03:45:00,72.1,68.7,29.92,NE,56,0.0,2.0,89,0.00,,---,0.00,VWS V14.01,2013-07-29 08:45:00,
2013-07-29 03:50:00,72.1,68.7,29.92,NE,56,1.0,1.0,89,0.00,,---,0.00,VWS V14.01,2013-07-29 08:50:00,
2013-07-29 03:55:00,72.1,69.0,29.92,NE,56,0.0,1.0,90,0.00,,,0.00,Wunderground v.1.15,2013-07-29 08:55:00,
2013-07-29 04:00:00,72.0,68.9,29.92,NE,56,1.0,1.0,90,0.00,,,0.00,Wunderground v.1.15,2013-07-29 09:00:00,
2013-07-29 04:05:00,72.0,68.9,29.93,NE,56,1.0,2.0,90,0.00,,,0.00,Wunderground v.1.15,2013-07-29 09:05:00,
2013-07-29 04:10:00,72.0,68.9,29.93,NE,54,1.0,1.0,90,0.00,,,0.00,Wunderground v.1.15,2013-07-29 09:10:00,
2013-07-29 04:15:00,72.0,68.9,29.93,NE,56,0.0,2.0,90,0.00,,---,0.00,VWS V14.01,2013-07-29 09:15:00,
2013-07-29 04:20:00,72.0,69.2,29.93,NE,56,1.0,1.0,91,0.00,,,0.00,Wunderground v.1.15,2013-07-29 09:20:00,
2013-07-29 04:25:00,72.0,69.2,29.93,NE,56,0.0,1.0,91,0.00,,,0.00,Wunderground v.1.15,2013-07-29 09:25:00,
2013-07-29 04:30:00,71.8,69.0,29.93,NE,56,0.0,1.0,91,0.00,,,0.00,Wunderground v.1.15,2013-07-29 09:30:00,
2013-07-29 04:31:00,71.8,69.0,29.93,NE,56,0.0,0.0,91,0.00,,---,0.00,VWS V14.01,2013-07-29 09:31:00,
2013-07-29 04:35:00,71.8,69.0,29.93,NE,56,0.0,1.0,91,0.00,,,0.00,Wunderground v.1.15,2013-07-29 09:35:00,
2013-07-29 04:36:00,71.8,69.0,29.93,NE,56,1.0,1.0,91,0.00,,---,0.00,VWS V14.01,2013-07-29 09:36:00,
2013-07-29 04:40:00,71.8,69.0,29.93,NE,56,0.0,1.0,91,0.00,,,0.00,Wunderground v.1.15,2013-07-29 09:40:00,
2013-07-29 04:41:00,71.8,69.0,29.93,NE,56,1.0,1.0,91,0.00,,---,0.00,VWS V14.01,2013-07-29 09:41:00,
2013-07-29 04:45:00,72.0,69.2,29.93,NE,56,1.0,1.0,91,0.00,,,0.00,Wunderground v.1.15,2013-07-29 09:45:00,
2013-07-29 04:47:00,72.0,69.2,29.93,NE,56,0.0,3.0,91,0.00,,---,0.00,VWS V14.01,2013-07-29 09:47:00,
2013-07-29 04:50:00,72.0,69.2,29.93,NE,56,1.0,1.0,91,0.00,,,0.00,Wunderground v.1.15,2013-07-29 09:50:00,
2013-07-29 04:52:00,72.0,69.2,29.93,NE,47,1.0,5.0,91,0.00,,---,0.00,VWS V14.01,2013-07-29 09:52:00,
2013-07-29 04:55:00,72.0,69.2,29.93,NE,47,1.0,1.0,91,0.00,,,0.00,Wunderground v.1.15,2013-07-29 09:55:00,
2013-07-29 04:57:00,72.1,69.3,29.93,ENE,77,1.0,5.0,91,0.00,,---,0.00,VWS V14.01,2013-07-29 09:57:00,
2013-07-29 05:00:00,72.1,69.3,29.93,ENE,77,1.0,1.0,91,0.00,,,0.00,Wunderground v.1.15,2013-07-29 10:00:00,
2013-07-29 05:05:00,72.1,69.3,29.93,ENE,75,2.0,3.0,91,0.00,,---,0.00,VWS V14.01,2013-07-29 10:05:00,
2013-07-29 05:10:00,72.1,69.0,29.93,ENE,75,1.0,2.0,90,0.00,,,0.00,Wunderground v.1.15,2013-07-29 10:10:00,
2013-07-29 05:12:00,72.1,69.0,29.94,ENE,71,1.0,2.0,90,0.00,,---,0.00,VWS V14.01,2013-07-29 10:12:00,
2013-07-29 05:15:00,72.1,69.0,29.94,ENE,73,1.0,2.0,90,0.00,,,0.00,Wunderground v.1.15,2013-07-29 10:15:00,
2013-07-29 05:17:00,72.1,69.0,29.94,ENE,73,1.0,5.0,90,0.00,,---,0.00,VWS V14.01,2013-07-29 10:17:00,
2013-07-29 05:20:00,72.1,69.0,29.94,ENE,73,1.0,1.0,90,0.00,,,0.00,Wunderground v.1.15,2013-07-29 10:20:00,
2013-07-29 05:22:00,72.1,69.0,29.94,ENE,71,2.0,3.0,90,0.00,,---,0.00,VWS V14.01,2013-07-29 10:22:00,
2013-07-29 05:28:00,72.1,69.0,29.94,ENE,71,1.0,3.0,90,0.00,,---,0.00,VWS V14.01,2013-07-29 10:28:00,
2013-07-29 05:30:00,72.1,69.0,29.94,ENE,71,1.0,1.0,90,0.00,,,0.00,Wunderground v.1.15,2013-07-29 10:30:00,
2013-07-29 05:33:00,72.1,69.0,29.94,ENE,71,2.0,3.0,90,0.00,,---,0.00,VWS V14.01,2013-07-29 10:33:00,
2013-07-29 05:35:00,72.1,69.0,29.94,ENE,71,1.0,1.0,90,0.00,,,0.00,Wunderground v.1.15,2013-07-29 10:35:00,
2013-07-29 05:38:00,72.0,69.2,29.94,ENE,71,0.0,3.0,91,0.00,,---,0.00,VWS V14.01,2013-07-29 10:38:00,
2013-07-29 05:40:00,72.0,69.2,29.94,ENE,71,1.0,1.0,91,0.00,,,0.00,Wunderground v.1.15,2013-07-29 10:40:00,
2013-07-29 05:43:00,72.0,69.2,29.94,ENE,71,0.0,3.0,91,0.00,,---,0.00,VWS V14.01,2013-07-29 10:43:00,
2013-07-29 05:45:00,72.0,69.2,29.94,ENE,71,1.0,2.0,91,0.00,,,0.00,Wunderground v.1.15,2013-07-29 10:45:00,
2013-07-29 05:49:00,72.0,69.2,29.94,ENE,78,2.0,3.0,91,0.00,,---,0.00,VWS V14.01,2013-07-29 10:49:00,
2013-07-29 05:50:00,72.0,69.2,29.94,East,88,1.0,2.0,91,0.00,,,0.00,Wunderground v.1.15,2013-07-29 10:50:00,
2013-07-29 05:54:00,72.0,69.2,29.94,SSW,207,0.0,2.0,91,0.00,,---,0.00,VWS V14.01,2013-07-29 10:54:00,
2013-07-29 06:00:00,72.0,69.2,29.95,SSW,207,0.0,2.0,91,0.00,,---,0.00,VWS V14.01,2013-07-29 11:00:00,
2013-07-29 06:05:00,72.0,69.2,29.95,SSW,207,0.0,0.0,91,0.00,,---,0.00,VWS V14.01,2013-07-29 11:05:00,
2013-07-29 06:10:00,72.0,69.2,29.95,ENE,67,1.0,3.0,91,0.00,,---,0.00,VWS V14.01,2013-07-29 11:10:00,
2013-07-29 06:15:00,72.0,69.2,29.95,ENE,67,1.0,1.0,91,0.00,,,0.00,Wunderground v.1.15,2013-07-29 11:15:00,
2013-07-29 06:20:00,72.0,69.2,29.95,ENE,67,0.0,0.0,91,0.00,,,0.00,Wunderground v.1.15,2013-07-29 11:20:00,
2013-07-29 06:22:00,72.0,69.2,29.95,ENE,66,0.0,0.0,91,0.00,,---,0.00,VWS V14.01,2013-07-29 11:22:00,
2013-07-29 06:29:00,72.0,69.2,29.95,ENE,66,0.0,2.0,91,0.00,,---,0.00,VWS V14.01,2013-07-29 11:29:00,
2013-07-29 06:35:00,72.0,69.2,29.95,ENE,67,0.0,3.0,91,0.00,,---,0.00,VWS V14.01,2013-07-29 11:35:00,
2013-07-29 06:40:00,72.0,69.2,29.95,ENE,67,0.0,3.0,91,0.00,,---,0.00,VWS V14.01,2013-07-29 11:40:00,
2013-07-29 06:45:00,72.0,69.2,29.96,ENE,67,0.0,2.0,91,0.00,,,0.00,Wunderground v.1.15,2013-07-29 11:45:00,
2013-07-29 06:50:00,72.0,69.2,29.96,NNE,32,1.0,3.0,91,0.00,,,0.00,Wunderground v.1.15,2013-07-29 11:50:00,
2013-07-29 06:51:00,72.0,69.2,29.96,NNE,32,0.0,3.0,91,0.00,,---,0.00,VWS V14.01,2013-07-29 11:51:00,
2013-07-29 06:57:00,72.1,69.7,29.96,NNE,32,0.0,3.0,92,0.00,,---,0.00,VWS V14.01,2013-07-29 11:57:00,
2013-07-29 07:02:00,72.1,69.7,29.96,NNE,32,0.0,0.0,92,0.00,,---,0.00,VWS V14.01,2013-07-29 12:02:00,
2013-07-29 07:07:00,72.1,69.7,29.96,NNE,32,0.0,0.0,92,0.00,,---,0.00,VWS V14.01,2013-07-29 12:07:00,
2013-07-29 07:10:00,72.1,69.6,29.96,NNE,32,0.0,3.0,92,0.00,,,0.00,Wunderground v.1.15,2013-07-29 12:10:00,
2013-07-29 07:13:00,72.3,69.8,29.96,NNE,32,0.0,2.0,92,0.00,,---,0.00,VWS V14.01,2013-07-29 12:13:00,
2013-07-29 07:18:00,72.3,69.8,29.97,ENE,57,1.0,3.0,92,0.00,,---,0.00,VWS V14.01,2013-07-29 12:18:00,
2013-07-29 07:20:00,72.3,69.8,29.97,ENE,57,1.0,1.0,92,0.00,,,0.00,Wunderground v.1.15,2013-07-29 12:20:00,
2013-07-29 07:23:00,72.5,70.1,29.97,ENE,57,0.0,0.0,92,0.00,,---,0.00,VWS V14.01,2013-07-29 12:23:00,
2013-07-29 07:25:00,72.5,70.0,29.97,ENE,57,0.0,3.0,92,0.00,,,0.00,Wunderground v.1.15,2013-07-29 12:25:00,
2013-07-29 07:29:00,72.7,70.2,29.97,ENE,57,0.0,1.0,92,0.00,,---,0.00,VWS V14.01,2013-07-29 12:29:00,
2013-07-29 07:30:00,72.7,70.2,29.97,ENE,57,0.0,3.0,92,0.00,,,0.00,Wunderground v.1.15,2013-07-29 12:30:00,
2013-07-29 07:35:00,72.7,70.2,29.97,ENE,57,1.0,3.0,92,0.00,,---,0.00,VWS V14.01,2013-07-29 12:35:00,
2013-07-29 07:40:00,72.8,70.3,29.97,ENE,57,0.0,1.0,92,0.00,,---,0.00,VWS V14.01,2013-07-29 12:40:00,
2013-07-29 07:45:00,73.0,70.5,29.98,ENE,59,1.0,3.0,92,0.00,,,0.00,Wunderground v.1.15,2013-07-29 12:45:00,
2013-07-29 07:46:00,73.0,70.5,29.98,ENE,59,0.0,5.0,92,0.00,,---,0.00,VWS V14.01,2013-07-29 12:46:00,
2013-07-29 07:50:00,73.0,70.2,29.98,ENE,59,1.0,1.0,91,0.00,,,0.00,Wunderground v.1.15,2013-07-29 12:50:00,
2013-07-29 07:52:00,73.2,70.4,29.98,ENE,59,2.0,2.0,91,0.00,,---,0.00,VWS V14.01,2013-07-29 12:52:00,
2013-07-29 07:58:00,73.3,70.5,29.98,ENE,59,2.0,2.0,91,0.00,,---,0.00,VWS V14.01,2013-07-29 12:58:00,
2013-07-29 08:00:00,73.5,70.7,29.98,ENE,59,1.0,3.0,91,0.00,,,0.00,Wunderground v.1.15,2013-07-29 13:00:00,
2013-07-29 08:03:00,73.5,70.7,29.98,ENE,60,0.0,1.0,91,0.00,,---,0.00,VWS V14.01,2013-07-29 13:03:00,
2013-07-29 08:08:00,73.9,71.1,29.98,ENE,59,0.0,1.0,91,0.00,,---,0.00,VWS V14.01,2013-07-29 13:08:00,
2013-07-29 08:10:00,74.0,71.2,29.98,ENE,59,0.0,3.0,91,0.00,,,0.00,Wunderground v.1.15,2013-07-29 13:10:00,
2013-07-29 08:13:00,74.0,71.2,29.98,ENE,60,0.0,2.0,91,0.00,,---,0.00,VWS V14.01,2013-07-29 13:13:00,
2013-07-29 08:15:00,74.2,71.4,29.98,ENE,60,0.0,3.0,91,0.00,,,0.00,Wunderground v.1.15,2013-07-29 13:15:00,
2013-07-29 08:18:00,74.4,71.6,29.98,ENE,60,1.0,2.0,91,0.00,,---,0.00,VWS V14.01,2013-07-29 13:18:00,
2013-07-29 08:24:00,74.7,71.6,29.98,ENE,59,1.0,2.0,90,0.00,,---,0.00,VWS V14.01,2013-07-29 13:24:00,
2013-07-29 08:25:00,74.7,71.6,29.98,ENE,59,1.0,3.0,90,0.00,,,0.00,Wunderground v.1.15,2013-07-29 13:25:00,
2013-07-29 08:29:00,74.9,72.1,29.98,ENE,60,1.0,3.0,91,0.00,,---,0.00,VWS V14.01,2013-07-29 13:29:00,
2013-07-29 08:30:00,74.9,72.1,29.98,ENE,60,1.0,3.0,91,0.00,,,0.00,Wunderground v.1.15,2013-07-29 13:30:00,
2013-07-29 08:34:00,75.3,72.2,29.98,ENE,60,0.0,1.0,90,0.00,,---,0.00,VWS V14.01,2013-07-29 13:34:00,
2013-07-29 08:40:00,75.4,72.3,29.98,ENE,60,1.0,3.0,90,0.00,,---,0.00,VWS V14.01,2013-07-29 13:40:00,
2013-07-29 08:45:00,75.8,72.7,29.98,ENE,60,1.0,3.0,90,0.00,,,0.00,Wunderground v.1.15,2013-07-29 13:45:00,
2013-07-29 08:50:00,76.0,72.5,29.99,ENE,60,1.0,3.0,89,0.00,,,0.00,Wunderground v.1.15,2013-07-29 13:50:00,
2013-07-29 08:56:00,76.1,72.6,29.99,ENE,61,0.0,3.0,89,0.00,,---,0.00,VWS V14.01,2013-07-29 13:56:00,
2013-07-29 09:00:00,76.3,72.8,29.99,ENE,61,1.0,3.0,89,0.00,,,0.00,Wunderground v.1.15,2013-07-29 14:00:00,
2013-07-29 09:01:00,76.3,72.8,29.99,ENE,61,1.0,1.0,89,0.00,,---,0.00,VWS V14.01,2013-07-29 14:01:00,
2013-07-29 09:05:00,76.3,72.5,29.99,ENE,61,1.0,3.0,88,0.00,,,0.00,Wunderground v.1.15,2013-07-29 14:05:00,
2013-07-29 09:07:00,76.5,73.0,29.99,ENE,61,0.0,5.0,89,0.00,,---,0.00,VWS V14.01,2013-07-29 14:07:00,
2013-07-29 09:12:00,76.7,73.2,29.99,NE,35,1.0,2.0,89,0.00,,---,0.00,VWS V14.01,2013-07-29 14:12:00,
2013-07-29 09:15:00,76.8,73.3,29.99,NE,35,1.0,3.0,89,0.00,,,0.00,Wunderground v.1.15,2013-07-29 14:15:00,
2013-07-29 09:19:00,77.0,73.2,29.99,NE,40,1.0,2.0,88,0.00,,---,0.00,VWS V14.01,2013-07-29 14:19:00,
2013-07-29 09:24:00,77.4,73.6,29.99,SE,132,2.0,3.0,88,0.00,,---,0.00,VWS V14.01,2013-07-29 14:24:00,
2013-07-29 09:25:00,77.4,73.6,29.99,SE,132,1.0,3.0,88,0.00,,,0.00,Wunderground v.1.15,2013-07-29 14:25:00,
2013-07-29 09:29:00,77.7,73.5,29.99,SE,132,1.0,3.0,87,0.00,,---,0.00,VWS V14.01,2013-07-29 14:29:00,
2013-07-29 09:35:00,78.1,73.9,29.99,ENE,71,5.0,5.0,87,0.00,,---,0.00,VWS V14.01,2013-07-29 14:35:00,
2013-07-29 09:40:00,78.3,73.8,29.99,SSW,204,2.0,3.0,86,0.00,,,0.00,Wunderground v.1.15,2013-07-29 14:40:00,
2013-07-29 09:45:00,78.6,73.7,29.99,East,94,2.0,3.0,85,0.00,,,0.00,Wunderground v.1.15,2013-07-29 14:45:00,
2013-07-29 09:46:00,78.8,73.9,29.99,NNE,27,2.0,5.0,85,0.00,,---,0.00,VWS V14.01,2013-07-29 14:46:00,
2013-07-29 09:50:00,79.0,74.1,29.99,South,176,2.0,3.0,85,0.00,,,0.00,Wunderground v.1.15,2013-07-29 14:50:00,
2013-07-29 09:52:00,79.2,73.9,29.99,SSE,162,0.0,3.0,84,0.00,,---,0.00,VWS V14.01,2013-07-29 14:52:00,
2013-07-29 09:57:00,79.4,74.2,29.99,ENE,59,3.0,7.0,84,0.00,,---,0.00,VWS V14.01,2013-07-29 14:57:00,
2013-07-29 10:00:00,79.6,74.3,29.99,SE,139,2.0,3.0,84,0.00,,,0.00,Wunderground v.1.15,2013-07-29 15:00:00,
2013-07-29 10:02:00,79.8,74.5,29.99,SSW,205,5.0,5.0,84,0.00,,---,0.00,VWS V14.01,2013-07-29 15:02:00,
2013-07-29 10:05:00,79.8,74.5,29.99,South,170,3.0,3.0,84,0.00,,,0.00,Wunderground v.1.15,2013-07-29 15:05:00,
2013-07-29 10:07:00,80.1,74.5,29.99,NNW,330,2.0,6.0,83,0.00,,---,0.00,VWS V14.01,2013-07-29 15:07:00,
2013-07-29 10:10:00,80.1,73.7,29.99,SSE,166,3.0,3.0,81,0.00,,,0.00,Wunderground v.1.15,2013-07-29 15:10:00,
2013-07-29 10:12:00,80.3,74.3,29.99,ESE,105,2.0,2.0,82,0.00,,---,0.00,VWS V14.01,2013-07-29 15:12:00,
2013-07-29 10:18:00,81.1,75.4,29.99,SW,224,3.0,7.0,83,0.00,,---,0.00,VWS V14.01,2013-07-29 15:18:00,
2013-07-29 10:20:00,81.1,75.1,29.99,SSW,193,2.0,3.0,82,0.00,,,0.00,Wunderground v.1.15,2013-07-29 15:20:00,
2013-07-29 10:24:00,81.1,75.1,29.99,SE,139,2.0,3.0,82,0.00,,---,0.00,VWS V14.01,2013-07-29 15:24:00,
2013-07-29 10:25:00,81.1,75.1,29.99,SSE,147,2.0,3.0,82,0.00,,,0.00,Wunderground v.1.15,2013-07-29 15:25:00,
2013-07-29 10:29:00,81.1,74.3,29.99,South,180,1.0,6.0,80,0.00,,---,0.00,VWS V14.01,2013-07-29 15:29:00,
2013-07-29 10:30:00,80.9,74.5,29.99,South,179,2.0,2.0,81,0.00,,,0.00,Wunderground v.1.15,2013-07-29 15:30:00,
2013-07-29 10:34:00,81.1,75.1,29.99,WSW,249,2.0,5.0,82,0.00,,---,0.00,VWS V14.01,2013-07-29 15:34:00,
2013-07-29 10:35:00,81.1,75.1,29.99,WSW,249,2.0,3.0,82,0.00,,,0.00,Wunderground v.1.15,2013-07-29 15:35:00,
2013-07-29 10:40:00,81.2,75.2,29.99,SE,139,2.0,2.0,82,0.00,,,0.00,Wunderground v.1.15,2013-07-29 15:40:00,
2013-07-29 10:45:00,81.1,74.7,29.99,SE,129,2.0,3.0,81,0.00,,,0.00,Wunderground v.1.15,2013-07-29 15:45:00,
2013-07-29 10:51:00,81.8,75.0,29.99,SE,133,2.0,2.0,80,0.00,,---,0.00,VWS V14.01,2013-07-29 15:51:00,
2013-07-29 10:55:00,82.0,74.8,29.99,South,170,1.0,3.0,79,0.00,,,0.00,Wunderground v.1.15,2013-07-29 15:55:00,
2013-07-29 10:57:00,82.2,75.4,29.99,South,171,2.0,7.0,80,0.00,,---,0.00,VWS V14.01,2013-07-29 15:57:00,
2013-07-29 11:00:00,82.2,74.7,29.99,SSW,197,2.0,2.0,78,0.00,,,0.00,Wunderground v.1.15,2013-07-29 16:00:00,
2013-07-29 11:04:00,82.4,74.9,29.99,SSW,193,5.0,5.0,78,0.00,,---,0.00,VWS V14.01,2013-07-29 16:04:00,
2013-07-29 11:05:00,82.6,75.0,29.99,South,187,1.0,3.0,78,0.00,,,0.00,Wunderground v.1.15,2013-07-29 16:05:00,
2013-07-29 11:09:00,82.6,75.1,29.99,South,184,2.0,5.0,78,0.00,,---,0.00,VWS V14.01,2013-07-29 16:09:00,
2013-07-29 11:10:00,82.6,75.4,29.99,South,184,1.0,3.0,79,0.00,,,0.00,Wunderground v.1.15,2013-07-29 16:10:00,
2013-07-29 11:14:00,83.2,75.2,29.98,South,190,3.0,3.0,77,0.00,,---,0.00,VWS V14.01,2013-07-29 16:14:00,
2013-07-29 11:15:00,83.2,75.2,29.98,South,190,2.0,3.0,77,0.00,,,0.00,Wunderground v.1.15,2013-07-29 16:15:00,
2013-07-29 11:19:00,83.2,74.1,29.98,South,188,3.0,5.0,74,0.00,,---,0.00,VWS V14.01,2013-07-29 16:19:00,
2013-07-29 11:25:00,83.8,75.0,29.98,South,171,5.0,5.0,75,0.00,,---,0.00,VWS V14.01,2013-07-29 16:25:00,
2013-07-29 11:30:00,84.0,75.2,29.98,South,190,3.0,3.0,75,0.00,,---,0.00,VWS V14.01,2013-07-29 16:30:00,
2013-07-29 11:35:00,83.8,75.0,29.99,South,181,3.0,3.0,75,0.00,,---,0.00,VWS V14.01,2013-07-29 16:35:00,
2013-07-29 11:40:00,83.4,74.7,29.99,SSW,200,5.0,5.0,75,0.00,,---,0.00,VWS V14.01,2013-07-29 16:40:00,
2013-07-29 11:45:00,83.2,74.8,29.99,South,188,3.0,3.0,76,0.00,,,0.00,Wunderground v.1.15,2013-07-29 16:45:00,
2013-07-29 11:50:00,83.2,74.5,29.99,SSE,147,3.0,3.0,75,0.00,,---,0.00,VWS V14.01,2013-07-29 16:50:00,
2013-07-29 11:55:00,83.6,74.8,29.99,ENE,70,2.0,5.0,75,0.00,,,0.00,Wunderground v.1.15,2013-07-29 16:55:00,
2013-07-29 12:01:00,84.0,75.2,29.99,South,191,1.0,3.0,75,0.00,,---,0.00,VWS V14.01,2013-07-29 17:01:00,
2013-07-29 12:05:00,84.7,75.9,29.98,NE,56,2.0,6.0,75,0.00,,,0.00,Wunderground v.1.15,2013-07-29 17:05:00,
2013-07-29 12:07:00,84.7,73.8,29.98,South,180,3.0,7.0,70,0.00,,---,0.00,VWS V14.01,2013-07-29 17:07:00,
2013-07-29 12:10:00,84.5,73.6,29.98,ESE,115,3.0,3.0,70,0.00,,,0.00,Wunderground v.1.15,2013-07-29 17:10:00,
2013-07-29 12:12:00,84.5,73.7,29.98,NE,44,2.0,6.0,70,0.00,,---,0.00,VWS V14.01,2013-07-29 17:12:00,
2013-07-29 12:15:00,84.7,73.8,29.98,East,88,3.0,3.0,70,0.00,,,0.00,Wunderground v.1.15,2013-07-29 17:15:00,
2013-07-29 12:17:00,84.9,74.0,29.98,NE,51,6.0,7.0,70,0.00,,---,0.00,VWS V14.01,2013-07-29 17:17:00,
2013-07-29 12:20:00,85.1,74.6,29.98,SSW,193,3.0,3.0,71,0.00,,,0.00,Wunderground v.1.15,2013-07-29 17:20:00,
2013-07-29 12:22:00,85.3,75.2,29.98,NW,310,2.0,5.0,72,0.00,,---,0.00,VWS V14.01,2013-07-29 17:22:00,
2013-07-29 12:25:00,85.7,75.6,29.98,WNW,286,3.0,3.0,72,0.00,,,0.00,Wunderground v.1.15,2013-07-29 17:25:00,
2013-07-29 12:28:00,86.1,75.6,29.98,South,188,2.0,7.0,71,0.00,,---,0.00,VWS V14.01,2013-07-29 17:28:00,
2013-07-29 12:30:00,86.3,75.8,29.98,ENE,73,2.0,3.0,71,0.00,,,0.00,Wunderground v.1.15,2013-07-29 17:30:00,
2013-07-29 12:34:00,85.9,74.1,29.98,East,84,0.0,8.0,68,0.00,,---,0.00,VWS V14.01,2013-07-29 17:34:00,
2013-07-29 12:39:00,86.1,75.2,29.98,North,2,1.0,8.0,70,0.00,,---,0.00,VWS V14.01,2013-07-29 17:39:00,
2013-07-29 12:40:00,86.1,75.2,29.98,ENE,59,2.0,2.0,70,0.00,,,0.00,Wunderground v.1.15,2013-07-29 17:40:00,
2013-07-29 12:45:00,86.7,75.7,29.97,ENE,59,1.0,2.0,70,0.00,,,0.00,Wunderground v.1.15,2013-07-29 17:45:00,
2013-07-29 12:50:00,87.0,75.2,29.97,North,354,1.0,3.0,68,0.00,,---,0.00,VWS V14.01,2013-07-29 17:50:00,
2013-07-29 12:55:00,86.5,75.1,29.97,ESE,109,1.0,7.0,69,0.00,,---,0.00,VWS V14.01,2013-07-29 17:55:00,
2013-07-29 13:00:00,86.5,75.1,29.97,ENE,63,2.0,2.0,69,0.00,,,0.00,Wunderground v.1.15,2013-07-29 18:00:00,
2013-07-29 13:01:00,86.5,75.1,29.97,ENE,61,3.0,5.0,69,0.00,,---,0.00,VWS V14.01,2013-07-29 18:01:00,
2013-07-29 13:06:00,87.0,76.5,29.97,SSE,162,6.0,6.0,71,0.00,,---,0.00,VWS V14.01,2013-07-29 18:06:00,
2013-07-29 13:10:00,87.4,76.8,29.97,SSE,160,2.0,2.0,71,0.00,,,0.00,Wunderground v.1.15,2013-07-29 18:10:00,
2013-07-29 13:12:00,87.4,75.1,29.97,ESE,114,2.0,3.0,67,0.00,,---,0.00,VWS V14.01,2013-07-29 18:12:00,
2013-07-29 13:18:00,87.6,74.8,29.97,SSE,159,2.0,6.0,66,0.00,,---,0.00,VWS V14.01,2013-07-29 18:18:00,
2013-07-29 13:23:00,87.8,75.0,29.97,SSW,197,6.0,6.0,66,0.00,,---,0.00,VWS V14.01,2013-07-29 18:23:00,
2013-07-29 13:25:00,87.8,74.6,29.97,SSW,201,3.0,6.0,65,0.00,,,0.00,Wunderground v.1.15,2013-07-29 18:25:00,
2013-07-29 13:28:00,87.6,75.3,29.97,SE,146,2.0,6.0,67,0.00,,---,0.00,VWS V14.01,2013-07-29 18:28:00,
2013-07-29 13:30:00,87.6,74.8,29.97,SSE,147,3.0,3.0,66,0.00,,,0.00,Wunderground v.1.15,2013-07-29 18:30:00,
2013-07-29 13:33:00,87.2,74.5,29.97,SE,139,2.0,3.0,66,0.00,,---,0.00,VWS V14.01,2013-07-29 18:33:00,
2013-07-29 13:35:00,87.0,74.3,29.97,South,170,2.0,5.0,66,0.00,,,0.00,Wunderground v.1.15,2013-07-29 18:35:00,
2013-07-29 13:39:00,86.5,75.1,29.97,NNE,25,2.0,6.0,69,0.00,,---,0.00,VWS V14.01,2013-07-29 18:39:00,
2013-07-29 13:40:00,86.7,74.4,29.97,NNE,27,2.0,5.0,67,0.00,,,0.00,Wunderground v.1.15,2013-07-29 18:40:00,
2013-07-29 13:44:00,87.0,73.8,29.96,ENE,64,2.0,7.0,65,0.00,,---,0.00,VWS V14.01,2013-07-29 18:44:00,
2013-07-29 13:45:00,87.0,74.3,29.96,North,352,2.0,5.0,66,0.00,,,0.00,Wunderground v.1.15,2013-07-29 18:45:00,
2013-07-29 13:49:00,87.6,74.4,29.96,NE,44,7.0,7.0,65,0.00,,---,0.00,VWS V14.01,2013-07-29 18:49:00,
2013-07-29 13:54:00,87.8,75.5,29.96,SSW,198,6.0,8.0,67,0.00,,---,0.00,VWS V14.01,2013-07-29 18:54:00,
2013-07-29 13:55:00,87.8,75.5,29.96,SSW,195,3.0,7.0,67,0.00,,,0.00,Wunderground v.1.15,2013-07-29 18:55:00,
2013-07-29 13:59:00,87.8,74.1,29.96,SW,225,2.0,8.0,64,0.00,,---,0.00,VWS V14.01,2013-07-29 18:59:00,
2013-07-29 14:00:00,87.8,74.1,29.96,South,174,3.0,3.0,64,0.00,,,0.00,Wunderground v.1.15,2013-07-29 19:00:00,
2013-07-29 14:04:00,87.8,75.0,29.96,SW,218,5.0,7.0,66,0.00,,---,0.00,VWS V14.01,2013-07-29 19:04:00,
2013-07-29 14:10:00,88.4,76.1,29.95,South,179,2.0,2.0,67,0.00,,---,0.00,VWS V14.01,2013-07-29 19:10:00,
2013-07-29 14:15:00,89.0,74.3,29.95,SSW,201,3.0,5.0,62,0.00,,,0.00,Wunderground v.1.15,2013-07-29 19:15:00,
2013-07-29 14:20:00,89.0,73.8,29.95,ENE,68,10.0,10.0,61,0.00,,---,0.00,VWS V14.01,2013-07-29 19:20:00,
2013-07-29 14:25:00,88.8,73.1,29.95,SSE,163,3.0,10.0,60,0.00,,,0.00,Wunderground v.1.15,2013-07-29 19:25:00,
2013-07-29 14:30:00,89.3,74.1,29.95,South,170,1.0,3.0,61,0.00,,---,0.00,VWS V14.01,2013-07-29 19:30:00,
2013-07-29 14:35:00,89.5,73.8,29.95,ENE,64,2.0,5.0,60,0.00,,,0.00,Wunderground v.1.15,2013-07-29 19:35:00,
2013-07-29 14:36:00,89.5,73.8,29.95,SSW,195,2.0,3.0,60,0.00,,---,0.00,VWS V14.01,2013-07-29 19:36:00,
2013-07-29 14:40:00,89.7,76.4,29.95,ESE,119,2.0,5.0,65,0.00,,,0.00,Wunderground v.1.15,2013-07-29 19:40:00,
2013-07-29 14:41:00,89.9,76.1,29.94,SSW,201,3.0,6.0,64,0.00,,---,0.00,VWS V14.01,2013-07-29 19:41:00,
2013-07-29 14:47:00,90.1,74.8,29.95,WNW,284,1.0,6.0,61,0.00,,---,0.00,VWS V14.01,2013-07-29 19:47:00,
2013-07-29 14:50:00,89.9,74.2,29.94,NE,36,3.0,3.0,60,0.00,,,0.00,Wunderground v.1.15,2013-07-29 19:50:00,
2013-07-29 14:54:00,89.9,74.2,29.94,NE,51,1.0,3.0,60,0.00,,---,0.00,VWS V14.01,2013-07-29 19:54:00,
2013-07-29 14:59:00,89.0,74.3,29.94,NE,43,1.0,5.0,62,0.00,,---,0.00,VWS V14.01,2013-07-29 19:59:00,
2013-07-29 15:04:00,89.7,75.0,29.94,NNW,339,1.0,5.0,62,0.00,,---,0.00,VWS V14.01,2013-07-29 20:04:00,
2013-07-29 15:05:00,89.7,74.9,29.94,NE,49,2.0,5.0,62,0.00,,,0.00,Wunderground v.1.15,2013-07-29 20:05:00,
2013-07-29 15:10:00,89.9,75.1,29.94,ENE,67,1.0,2.0,62,0.00,,---,0.00,VWS V14.01,2013-07-29 20:10:00,
2013-07-29 15:15:00,89.7,75.4,29.94,ENE,74,1.0,5.0,63,0.00,,,0.00,Wunderground v.1.15,2013-07-29 20:15:00,
2013-07-29 15:20:00,90.1,76.3,29.93,South,186,1.0,5.0,64,0.00,,,0.00,Wunderground v.1.15,2013-07-29 20:20:00,
2013-07-29 15:21:00,90.1,76.3,29.94,NNE,16,2.0,2.0,64,0.00,,---,0.00,VWS V14.01,2013-07-29 20:21:00,
2013-07-29 15:25:00,90.1,75.3,29.94,NNW,344,2.0,5.0,62,0.00,,,0.00,Wunderground v.1.15,2013-07-29 20:25:00,
2013-07-29 15:27:00,89.9,75.1,29.94,WSW,246,2.0,5.0,62,0.00,,---,0.00,VWS V14.01,2013-07-29 20:27:00,
2013-07-29 15:33:00,90.1,75.3,29.93,NNE,13,2.0,2.0,62,0.00,,---,0.00,VWS V14.01,2013-07-29 20:33:00,
2013-07-29 15:35:00,90.5,75.7,29.94,NNE,20,2.0,5.0,62,0.00,,,0.00,Wunderground v.1.15,2013-07-29 20:35:00,
2013-07-29 15:38:00,90.5,74.7,29.94,SSW,200,5.0,5.0,60,0.00,,---,0.00,VWS V14.01,2013-07-29 20:38:00,
2013-07-29 15:40:00,90.5,73.7,29.94,ESE,123,2.0,5.0,58,0.00,,,0.00,Wunderground v.1.15,2013-07-29 20:40:00,
2013-07-29 15:43:00,90.7,74.9,29.94,South,183,1.0,5.0,60,0.00,,---,0.00,VWS V14.01,2013-07-29 20:43:00,
2013-07-29 15:48:00,90.7,73.9,29.94,NE,36,3.0,6.0,58,0.00,,---,0.00,VWS V14.01,2013-07-29 20:48:00,
2013-07-29 15:50:00,90.5,74.2,29.93,ENE,64,2.0,5.0,59,0.00,,,0.00,Wunderground v.1.15,2013-07-29 20:50:00,
2013-07-29 15:53:00,90.3,75.5,29.94,NE,56,3.0,7.0,62,0.00,,---,0.00,VWS V14.01,2013-07-29 20:53:00,
2013-07-29 15:55:00,90.1,75.3,29.93,ENE,78,3.0,5.0,62,0.00,,,0.00,Wunderground v.1.15,2013-07-29 20:55:00,
2013-07-29 15:59:00,90.3,75.0,29.93,ENE,78,2.0,8.0,61,0.00,,---,0.00,VWS V14.01,2013-07-29 20:59:00,
2013-07-29 16:00:00,90.5,76.2,29.93,NE,49,3.0,3.0,63,0.00,,,0.00,Wunderground v.1.15,2013-07-29 21:00:00,
2013-07-29 16:04:00,91.0,76.7,29.93,ENE,57,6.0,6.0,63,0.00,,---,0.00,VWS V14.01,2013-07-29 21:04:00,
2013-07-29 16:05:00,91.0,76.7,29.93,NE,44,2.0,5.0,63,0.00,,,0.00,Wunderground v.1.15,2013-07-29 21:05:00,
2013-07-29 16:09:00,90.7,74.4,29.93,NE,47,1.0,7.0,59,0.00,,---,0.00,VWS V14.01,2013-07-29 21:09:00,
2013-07-29 16:15:00,91.0,75.7,29.93,SSW,203,2.0,3.0,61,0.00,,---,0.00,VWS V14.01,2013-07-29 21:15:00,
2013-07-29 16:20:00,91.0,75.7,29.93,SSW,204,2.0,6.0,61,0.00,,---,0.00,VWS V14.01,2013-07-29 21:20:00,
2013-07-29 16:25:00,91.0,74.7,29.93,SSE,166,3.0,5.0,59,0.00,,---,0.00,VWS V14.01,2013-07-29 21:25:00,
2013-07-29 16:30:00,90.7,75.4,29.93,NE,40,3.0,5.0,61,0.00,,,0.00,Wunderground v.1.15,2013-07-29 21:30:00,
2013-07-29 16:32:00,90.3,75.0,29.93,ENE,73,1.0,5.0,61,0.00,,---,0.00,VWS V14.01,2013-07-29 21:32:00,
2013-07-29 16:35:00,90.1,74.8,29.93,ENE,61,3.0,5.0,61,0.00,,,0.00,Wunderground v.1.15,2013-07-29 21:35:00,
2013-07-29 16:37:00,89.9,74.7,29.93,NE,50,3.0,8.0,61,0.00,,---,0.00,VWS V14.01,2013-07-29 21:37:00,
2013-07-29 16:42:00,89.7,74.5,29.93,NE,49,3.0,7.0,61,0.00,,---,0.00,VWS V14.01,2013-07-29 21:42:00,
2013-07-29 16:45:00,89.5,74.3,29.93,NE,49,4.0,5.0,61,0.00,,,0.00,Wunderground v.1.15,2013-07-29 21:45:00,
2013-07-29 16:48:00,89.5,74.3,29.93,NE,49,3.0,7.0,61,0.00,,---,0.00,VWS V14.01,2013-07-29 21:48:00,
2013-07-29 16:53:00,89.3,75.1,29.93,NE,51,2.0,5.0,63,0.00,,---,0.00,VWS V14.01,2013-07-29 21:53:00,
2013-07-29 16:55:00,89.0,74.8,29.92,NE,51,2.0,5.0,63,0.00,,,0.00,Wunderground v.1.15,2013-07-29 21:55:00,
2013-07-29 17:00:00,88.8,75.5,29.92,NE,51,2.0,5.0,65,0.00,,,0.00,Wunderground v.1.15,2013-07-29 22:00:00,
2013-07-29 17:01:00,88.8,75.5,29.92,NE,51,3.0,3.0,65,0.00,,---,0.00,VWS V14.01,2013-07-29 22:01:00,
2013-07-29 17:06:00,88.8,74.6,29.92,ENE,63,2.0,7.0,63,0.00,,---,0.00,VWS V14.01,2013-07-29 22:06:00,
2013-07-29 17:10:00,88.6,75.3,29.92,ENE,63,3.0,5.0,65,0.00,,,0.00,Wunderground v.1.15,2013-07-29 22:10:00,
2013-07-29 17:12:00,88.6,75.3,29.92,ENE,68,2.0,3.0,65,0.00,,---,0.00,VWS V14.01,2013-07-29 22:12:00,
2013-07-29 17:15:00,88.6,75.3,29.92,ENE,68,3.0,5.0,65,0.00,,,0.00,Wunderground v.1.15,2013-07-29 22:15:00,
2013-07-29 17:18:00,88.6,75.3,29.92,ENE,61,2.0,7.0,65,0.00,,---,0.00,VWS V14.01,2013-07-29 22:18:00,
2013-07-29 17:20:00,88.6,75.8,29.92,ENE,74,2.0,5.0,66,0.00,,,0.00,Wunderground v.1.15,2013-07-29 22:20:00,
2013-07-29 17:24:00,88.4,75.1,29.92,NE,49,2.0,5.0,65,0.00,,---,0.00,VWS V14.01,2013-07-29 22:24:00,
2013-07-29 17:25:00,88.4,75.1,29.92,NNE,18,2.0,6.0,65,0.00,,,0.00,Wunderground v.1.15,2013-07-29 22:25:00,
2013-07-29 17:29:00,88.0,74.3,29.92,ENE,73,1.0,6.0,64,0.00,,---,0.00,VWS V14.01,2013-07-29 22:29:00,
2013-07-29 17:34:00,88.0,74.3,29.92,ENE,73,1.0,2.0,64,0.00,,---,0.00,VWS V14.01,2013-07-29 22:34:00,
2013-07-29 17:35:00,88.0,74.3,29.92,ENE,73,2.0,5.0,64,0.00,,,0.00,Wunderground v.1.15,2013-07-29 22:35:00,
2013-07-29 17:40:00,88.0,74.3,29.92,East,90,2.0,2.0,64,0.00,,---,0.00,VWS V14.01,2013-07-29 22:40:00,
2013-07-29 17:45:00,87.4,75.6,29.92,East,88,0.0,2.0,68,0.00,,---,0.00,VWS V14.01,2013-07-29 22:45:00,
2013-07-29 17:50:00,87.2,75.3,29.92,ENE,68,1.0,5.0,68,0.00,,,0.00,Wunderground v.1.15,2013-07-29 22:50:00,
2013-07-29 17:55:00,87.2,75.8,29.91,ENE,67,1.0,5.0,69,0.00,,,0.00,Wunderground v.1.15,2013-07-29 22:55:00,
2013-07-29 18:00:00,87.4,75.5,29.91,ENE,70,1.0,5.0,68,0.00,,,0.00,Wunderground v.1.15,2013-07-29 23:00:00,
2013-07-29 18:05:00,87.6,75.7,29.91,NNE,15,2.0,7.0,68,0.00,,---,0.00,VWS V14.01,2013-07-29 23:05:00,
2013-07-29 18:10:00,87.8,76.4,29.91,ENE,71,1.0,1.0,69,0.00,,---,0.00,VWS V14.01,2013-07-29 23:10:00,
2013-07-29 18:15:00,87.8,76.4,29.91,ENE,70,1.0,2.0,69,0.00,,,0.00,Wunderground v.1.15,2013-07-29 23:15:00,
2013-07-29 18:20:00,87.8,75.5,29.90,NE,50,1.0,3.0,67,0.00,,,0.00,Wunderground v.1.15,2013-07-29 23:20:00,
2013-07-29 18:25:00,87.8,75.9,29.90,East,83,2.0,3.0,68,0.00,,,0.00,Wunderground v.1.15,2013-07-29 23:25:00,
2013-07-29 18:26:00,87.8,75.9,29.90,East,81,5.0,6.0,68,0.00,,---,0.00,VWS V14.01,2013-07-29 23:26:00,
2013-07-29 18:30:00,87.4,75.1,29.90,ENE,78,3.0,3.0,67,0.00,,,0.00,Wunderground v.1.15,2013-07-29 23:30:00,
2013-07-29 18:31:00,87.4,75.1,29.90,NE,37,2.0,3.0,67,0.00,,---,0.00,VWS V14.01,2013-07-29 23:31:00,
2013-07-29 18:35:00,87.2,75.3,29.90,East,91,2.0,3.0,68,0.00,,,0.00,Wunderground v.1.15,2013-07-29 23:35:00,
2013-07-29 18:37:00,87.2,75.4,29.90,East,91,1.0,3.0,68,0.00,,---,0.00,VWS V14.01,2013-07-29 23:37:00,
2013-07-29 18:40:00,87.2,75.3,29.90,East,91,1.0,1.0,68,0.00,,,0.00,Wunderground v.1.15,2013-07-29 23:40:00,
2013-07-29 18:42:00,87.2,75.8,29.90,East,91,2.0,2.0,69,0.00,,---,0.00,VWS V14.01,2013-07-29 23:42:00,
2013-07-29 18:45:00,87.2,75.8,29.90,East,91,1.0,2.0,69,0.00,,,0.00,Wunderground v.1.15,2013-07-29 23:45:00,
2013-07-29 18:47:00,87.2,75.8,29.90,East,90,2.0,2.0,69,0.00,,---,0.00,VWS V14.01,2013-07-29 23:47:00,
2013-07-29 18:50:00,87.0,75.6,29.90,ENE,70,1.0,1.0,69,0.00,,,0.00,Wunderground v.1.15,2013-07-29 23:50:00,
2013-07-29 18:52:00,87.0,75.6,29.90,ENE,70,0.0,3.0,69,0.00,,---,0.00,VWS V14.01,2013-07-29 23:52:00,
2013-07-29 18:55:00,87.0,75.6,29.90,ENE,66,1.0,2.0,69,0.00,,,0.00,Wunderground v.1.15,2013-07-29 23:55:00,
2013-07-29 18:59:00,87.0,76.0,29.89,ENE,57,3.0,5.0,70,0.00,,---,0.00,VWS V14.01,2013-07-29 23:59:00,
2013-07-29 19:00:00,86.7,75.3,29.89,ENE,63,2.0,2.0,69,0.00,,,0.00,Wunderground v.1.15,2013-07-30 00:00:00,
2013-07-29 19:05:00,86.7,75.3,29.89,ENE,64,2.0,3.0,69,0.00,,---,0.00,VWS V14.01,2013-07-30 00:05:00,
2013-07-29 19:10:00,86.5,75.1,29.90,ENE,75,2.0,6.0,69,0.00,,---,0.00,VWS V14.01,2013-07-30 00:10:00,
2013-07-29 19:15:00,86.3,74.9,29.90,NE,53,2.0,5.0,69,0.00,,,0.00,Wunderground v.1.15,2013-07-30 00:15:00,
2013-07-29 19:20:00,86.1,75.2,29.90,NNE,20,1.0,5.0,70,0.00,,,0.00,Wunderground v.1.15,2013-07-30 00:20:00,
2013-07-29 19:25:00,86.1,75.2,29.90,ENE,61,1.0,5.0,70,0.00,,,0.00,Wunderground v.1.15,2013-07-30 00:25:00,
2013-07-29 19:27:00,86.1,75.2,29.90,ENE,61,0.0,2.0,70,0.00,,---,0.00,VWS V14.01,2013-07-30 00:27:00,
2013-07-29 19:32:00,86.1,75.2,29.90,ENE,60,0.0,1.0,70,0.00,,---,0.00,VWS V14.01,2013-07-30 00:32:00,
2013-07-29 19:37:00,85.9,75.8,29.90,ENE,60,0.0,1.0,72,0.00,,---,0.00,VWS V14.01,2013-07-30 00:37:00,
2013-07-29 19:40:00,85.5,75.4,29.91,ENE,60,1.0,5.0,72,0.00,,,0.00,Wunderground v.1.15,2013-07-30 00:40:00,
2013-07-29 19:42:00,85.5,75.4,29.91,ENE,60,0.0,1.0,72,0.00,,---,0.00,VWS V14.01,2013-07-30 00:42:00,
2013-07-29 19:47:00,85.3,75.7,29.91,ENE,61,0.0,1.0,73,0.00,,---,0.00,VWS V14.01,2013-07-30 00:47:00,
2013-07-29 19:53:00,85.1,75.9,29.92,ENE,61,0.0,0.0,74,0.00,,---,0.00,VWS V14.01,2013-07-30 00:53:00,
2013-07-29 19:55:00,84.7,75.9,29.92,ENE,60,0.0,5.0,75,0.00,,,0.00,Wunderground v.1.15,2013-07-30 00:55:00,
2013-07-29 19:58:00,84.5,75.7,29.92,ENE,60,0.0,0.0,75,0.00,,---,0.00,VWS V14.01,2013-07-30 00:58:00,
2013-07-29 20:00:00,84.3,75.9,29.92,ENE,60,0.0,5.0,76,0.00,,,0.00,Wunderground v.1.15,2013-07-30 01:00:00,
2013-07-29 20:03:00,84.1,76.1,29.92,ENE,60,0.0,0.0,77,0.00,,---,0.00,VWS V14.01,2013-07-30 01:03:00,
2013-07-29 20:05:00,84.0,76.0,29.92,ENE,60,0.0,5.0,77,0.00,,,0.00,Wunderground v.1.15,2013-07-30 01:05:00,
2013-07-29 20:08:00,83.8,75.4,29.92,ENE,60,0.0,0.0,76,0.00,,---,0.00,VWS V14.01,2013-07-30 01:08:00,
2013-07-29 20:10:00,83.8,75.8,29.92,ENE,61,0.0,5.0,77,0.00,,,0.00,Wunderground v.1.15,2013-07-30 01:10:00,
2013-07-29 20:13:00,83.6,75.6,29.92,ENE,60,2.0,2.0,77,0.00,,---,0.00,VWS V14.01,2013-07-30 01:13:00,
2013-07-29 20:15:00,83.6,75.6,29.92,ENE,60,0.0,5.0,77,0.00,,,0.00,Wunderground v.1.15,2013-07-30 01:15:00,
2013-07-29 20:19:00,83.4,75.4,29.92,ENE,61,0.0,2.0,77,0.00,,---,0.00,VWS V14.01,2013-07-30 01:19:00,
2013-07-29 20:20:00,83.2,75.2,29.92,ENE,61,0.0,5.0,77,0.00,,,0.00,Wunderground v.1.15,2013-07-30 01:20:00,
2013-07-29 20:25:00,82.8,74.9,29.93,ENE,60,0.0,0.0,77,0.00,,---,0.00,VWS V14.01,2013-07-30 01:25:00,
2013-07-29 20:30:00,82.8,75.2,29.93,ENE,60,0.0,5.0,78,0.00,,,0.00,Wunderground v.1.15,2013-07-30 01:30:00,
2013-07-29 20:31:00,82.8,75.2,29.93,ENE,61,0.0,0.0,78,0.00,,---,0.00,VWS V14.01,2013-07-30 01:31:00,
2013-07-29 20:36:00,82.4,74.9,29.93,ENE,61,0.0,0.0,78,0.00,,---,0.00,VWS V14.01,2013-07-30 01:36:00,
2013-07-29 20:40:00,82.2,75.4,29.93,ENE,60,0.0,5.0,80,0.00,,,0.00,Wunderground v.1.15,2013-07-30 01:40:00,
2013-07-29 20:42:00,82.0,75.2,29.93,ENE,61,0.0,0.0,80,0.00,,---,0.00,VWS V14.01,2013-07-30 01:42:00,
2013-07-29 20:47:00,81.8,75.0,29.93,ENE,60,0.0,0.0,80,0.00,,---,0.00,VWS V14.01,2013-07-30 01:47:00,
2013-07-29 20:50:00,81.6,75.2,29.93,ENE,61,0.0,5.0,81,0.00,,,0.00,Wunderground v.1.15,2013-07-30 01:50:00,
2013-07-29 20:53:00,81.6,75.2,29.93,ENE,60,0.0,0.0,81,0.00,,---,0.00,VWS V14.01,2013-07-30 01:53:00,
2013-07-29 20:55:00,81.6,75.6,29.93,ENE,60,0.0,5.0,82,0.00,,,0.00,Wunderground v.1.15,2013-07-30 01:55:00,
2013-07-29 20:58:00,81.6,75.6,29.93,ENE,61,0.0,0.0,82,0.00,,---,0.00,VWS V14.01,2013-07-30 01:58:00,
2013-07-29 21:00:00,81.1,75.1,29.93,ENE,60,0.0,5.0,82,0.00,,,0.00,Wunderground v.1.15,2013-07-30 02:00:00,
2013-07-29 21:04:00,81.1,75.1,29.93,ENE,60,0.0,0.0,82,0.00,,---,0.00,VWS V14.01,2013-07-30 02:04:00,
2013-07-29 21:05:00,81.1,75.1,29.93,ENE,61,0.0,5.0,82,0.00,,,0.00,Wunderground v.1.15,2013-07-30 02:05:00,
2013-07-29 21:09:00,80.9,75.3,29.93,ENE,60,0.0,0.0,83,0.00,,---,0.00,VWS V14.01,2013-07-30 02:09:00,
2013-07-29 21:14:00,80.5,74.9,29.93,ENE,61,0.0,0.0,83,0.00,,---,0.00,VWS V14.01,2013-07-30 02:14:00,
2013-07-29 21:15:00,80.5,74.9,29.93,ENE,61,0.0,5.0,83,0.00,,,0.00,Wunderground v.1.15,2013-07-30 02:15:00,
2013-07-29 21:19:00,80.3,74.7,29.93,ENE,61,0.0,0.0,83,0.00,,---,0.00,VWS V14.01,2013-07-30 02:19:00,
2013-07-29 21:20:00,80.3,74.7,29.92,ENE,61,0.0,5.0,83,0.00,,,0.00,Wunderground v.1.15,2013-07-30 02:20:00,
2013-07-29 21:25:00,80.3,74.7,29.92,ENE,61,0.0,0.0,83,0.00,,---,0.00,VWS V14.01,2013-07-30 02:25:00,
2013-07-29 21:30:00,79.9,74.3,29.92,ENE,61,0.0,0.0,83,0.00,,---,0.00,VWS V14.01,2013-07-30 02:30:00,
2013-07-29 21:35:00,79.8,74.2,29.92,ENE,61,0.0,5.0,83,0.00,,,0.00,Wunderground v.1.15,2013-07-30 02:35:00,
2013-07-29 21:36:00,79.8,74.2,29.92,ENE,61,0.0,0.0,83,0.00,,---,0.00,VWS V14.01,2013-07-30 02:36:00,
2013-07-29 21:41:00,79.6,74.0,29.92,ENE,61,0.0,0.0,83,0.00,,---,0.00,VWS V14.01,2013-07-30 02:41:00,
2013-07-29 21:45:00,79.6,74.0,29.92,ENE,61,0.0,5.0,83,0.00,,,0.00,Wunderground v.1.15,2013-07-30 02:45:00,
2013-07-29 21:46:00,79.6,74.0,29.92,ENE,60,0.0,1.0,83,0.00,,---,0.00,VWS V14.01,2013-07-30 02:46:00,
2013-07-29 21:58:00,79.4,73.4,29.93,ENE,61,0.0,1.0,82,0.00,,---,0.00,VWS V14.01,2013-07-30 02:58:00,
2013-07-29 22:00:00,79.4,73.4,29.93,ENE,61,0.0,5.0,82,0.00,,,0.00,Wunderground v.1.15,2013-07-30 03:00:00,
2013-07-29 22:04:00,79.4,73.4,29.93,ENE,61,0.0,0.0,82,0.00,,---,0.00,VWS V14.01,2013-07-30 03:04:00,
2013-07-29 22:09:00,79.2,73.2,29.94,NE,50,0.0,1.0,82,0.00,,---,0.00,VWS V14.01,2013-07-30 03:09:00,
2013-07-29 22:10:00,79.2,73.2,29.94,NE,50,0.0,5.0,82,0.00,,,0.00,Wunderground v.1.15,2013-07-30 03:10:00,
2013-07-29 22:14:00,79.2,73.2,29.94,NE,50,0.0,0.0,82,0.00,,---,0.00,VWS V14.01,2013-07-30 03:14:00,
2013-07-29 22:15:00,79.2,73.2,29.94,NE,50,0.0,5.0,82,0.00,,,0.00,Wunderground v.1.15,2013-07-30 03:15:00,
2013-07-29 22:19:00,79.2,73.2,29.94,NE,50,0.0,1.0,82,0.00,,---,0.00,VWS V14.01,2013-07-30 03:19:00,
2013-07-29 22:20:00,79.2,73.2,29.94,NE,50,0.0,5.0,82,0.00,,,0.00,Wunderground v.1.15,2013-07-30 03:20:00,
2013-07-29 22:24:00,79.4,73.1,29.94,NE,51,0.0,3.0,81,0.00,,---,0.00,VWS V14.01,2013-07-30 03:24:00,
2013-07-29 22:30:00,79.4,73.1,29.94,NE,53,0.0,3.0,81,0.00,,---,0.00,VWS V14.01,2013-07-30 03:30:00,
2013-07-29 22:35:00,79.6,73.3,29.94,NE,54,1.0,5.0,81,0.00,,,0.00,Wunderground v.1.15,2013-07-30 03:35:00,
2013-07-29 22:40:00,79.6,73.3,29.94,NE,54,0.0,0.0,81,0.00,,---,0.00,VWS V14.01,2013-07-30 03:40:00,
2013-07-29 22:45:00,79.6,72.9,29.94,NE,54,0.0,5.0,80,0.00,,,0.00,Wunderground v.1.15,2013-07-30 03:45:00,
2013-07-29 22:50:00,79.6,73.3,29.94,NE,40,0.0,5.0,81,0.00,,,0.00,Wunderground v.1.15,2013-07-30 03:50:00,
2013-07-29 22:51:00,79.6,73.3,29.94,NE,40,0.0,1.0,81,0.00,,---,0.00,VWS V14.01,2013-07-30 03:51:00,
2013-07-29 22:55:00,79.6,72.9,29.94,NE,40,0.0,5.0,80,0.00,,,0.00,Wunderground v.1.15,2013-07-30 03:55:00,
2013-07-29 22:56:00,79.6,72.9,29.94,NE,40,0.0,1.0,80,0.00,,---,0.00,VWS V14.01,2013-07-30 03:56:00,
2013-07-29 23:00:00,79.6,72.9,29.94,NE,40,0.0,5.0,80,0.00,,,0.00,Wunderground v.1.15,2013-07-30 04:00:00,
2013-07-29 23:01:00,79.6,72.9,29.94,NE,40,0.0,0.0,80,0.00,,---,0.00,VWS V14.01,2013-07-30 04:01:00,
2013-07-29 23:02:00,79.6,72.9,29.94,NE,40,0.0,0.0,80,0.00,,---,0.00,VWS V14.01,2013-07-30 04:02:00,
2013-07-29 23:05:00,79.6,72.9,29.95,NE,40,0.0,5.0,80,0.00,,,0.00,Wunderground v.1.15,2013-07-30 04:05:00,
2013-07-29 23:07:00,79.6,72.9,29.95,NE,40,1.0,1.0,80,0.00,,---,0.00,VWS V14.01,2013-07-30 04:07:00,
2013-07-29 23:10:00,79.6,72.9,29.94,NE,40,0.0,5.0,80,0.00,,,0.00,Wunderground v.1.15,2013-07-30 04:10:00,
2013-07-29 23:13:00,79.6,72.9,29.94,NE,40,0.0,1.0,80,0.00,,---,0.00,VWS V14.01,2013-07-30 04:13:00,
2013-07-29 23:15:00,79.6,72.9,29.94,NE,40,0.0,5.0,80,0.00,,,0.00,Wunderground v.1.15,2013-07-30 04:15:00,
2013-07-29 23:18:00,79.6,72.9,29.94,NE,40,0.0,1.0,80,0.00,,---,0.00,VWS V14.01,2013-07-30 04:18:00,
2013-07-29 23:20:00,79.6,72.9,29.94,NE,40,0.0,5.0,80,0.00,,,0.00,Wunderground v.1.15,2013-07-30 04:20:00,
2013-07-29 23:23:00,79.6,72.9,29.94,NE,40,0.0,1.0,80,0.00,,---,0.00,VWS V14.01,2013-07-30 04:23:00,
2013-07-29 23:25:00,79.6,72.9,29.94,NE,40,0.0,5.0,80,0.00,,,0.00,Wunderground v.1.15,2013-07-30 04:25:00,
2013-07-29 23:28:00,79.6,72.9,29.94,NE,40,1.0,1.0,80,0.00,,---,0.00,VWS V14.01,2013-07-30 04:28:00,
2013-07-29 23:30:00,79.6,72.9,29.94,NE,40,0.0,5.0,80,0.00,,,0.00,Wunderground v.1.15,2013-07-30 04:30:00,
2013-07-29 23:34:00,79.6,72.9,29.93,NE,40,0.0,2.0,80,0.00,,---,0.00,VWS V14.01,2013-07-30 04:34:00,
2013-07-29 23:35:00,79.6,72.9,29.93,NE,40,0.0,5.0,80,0.00,,,0.00,Wunderground v.1.15,2013-07-30 04:35:00,
2013-07-29 23:39:00,79.4,72.7,29.93,NE,44,0.0,2.0,80,0.00,,---,0.00,VWS V14.01,2013-07-30 04:39:00,
2013-07-29 23:40:00,79.4,72.7,29.93,NE,44,0.0,5.0,80,0.00,,,0.00,Wunderground v.1.15,2013-07-30 04:40:00,
2013-07-29 23:44:00,79.4,72.7,29.94,NE,44,0.0,1.0,80,0.00,,---,0.00,VWS V14.01,2013-07-30 04:44:00,
2013-07-29 23:45:00,79.4,72.7,29.94,NE,44,0.0,5.0,80,0.00,,,0.00,Wunderground v.1.15,2013-07-30 04:45:00,
2013-07-29 23:50:00,79.4,72.7,29.94,NE,44,0.0,5.0,80,0.00,,,0.00,Wunderground v.1.15,2013-07-30 04:50:00,
2013-07-29 23:55:00,79.4,73.1,29.94,NE,44,0.0,5.0,81,0.00,,,0.00,Wunderground v.1.15,2013-07-30 04:55:00,